| time (UTC) | temp F | wind direction | speed MPH | gust MPH | rain 1hr in | rain 24hr in | rain mn in | humidity % | barometer mb |
| 20260905152524 | 87 | 26 | 1.0 | 1.0 | 0.00 | 0.00 | 0.00 | 51 | 1010.7 |
| 20260905151551 | 87 | 155 | 1.0 | 1.0 | 0.00 | 0.00 | 0.00 | 52 | |
| 20260905150523 | 86 | 192 | 0.0 | 1.0 | 0.00 | 0.00 | 0.00 | 53 | 1010.6 |
| 20260905145538 | 85 | 153 | 1.0 | 1.0 | 0.00 | 0.00 | 0.00 | 54 | 1010.6 |
| 20260905144535 | 85 | 146 | 1.0 | 1.0 | 0.00 | 0.00 | 0.00 | 54 | |
| 20260905143543 | 84 | 205 | 0.0 | 0.0 | 0.00 | 0.00 | 0.00 | 54 | 1010.6 |
| 20260905142527 | 84 | 180 | 0.0 | 0.0 | 0.00 | 0.00 | 0.00 | 55 | 1010.5 |
| 20260905141520 | 83 | 0.0 | 0.0 | 0.00 | 0.00 | 0.00 | 55 | 1010.4 | |
| 20260905140527 | 82 | 0.0 | 0.0 | 0.00 | 0.00 | 0.00 | 56 | 1010.3 | |
| 20260905135525 | 81 | 0.0 | 0.0 | 0.00 | 0.00 | 0.00 | 56 | 1010.2 | |
| 20260905134522 | 81 | 0.0 | 0.0 | 0.00 | 0.00 | 0.00 | 56 | 1010.0 | |
| 20260905133520 | 80 | 0.0 | 0.0 | 0.00 | 0.00 | 0.00 | 56 | 1009.9 | |
| 20260905132531 | 80 | 0.0 | 0.0 | 0.00 | 0.00 | 0.00 | 56 | 1009.8 | |
| 20260905131531 | 80 | 0.0 | 0.0 | 0.00 | 0.00 | 0.00 | 56 | 1009.6 | |
| 20260905130704 | 81 | 0.0 | 0.0 | 0.00 | 0.00 | 0.00 | 56 | 1009.6 | |
| 20260905125522 | 81 | 0.0 | 0.0 | 0.00 | 0.00 | 0.00 | 55 | 1009.5 | |
| 20260905124542 | 81 | 0.0 | 0.0 | 0.00 | 0.00 | 0.00 | 55 | 1009.5 | |
| 20260905123527 | 81 | 0.0 | 0.0 | 0.00 | 0.00 | 0.00 | 55 | 1009.4 | |
| 20260905122528 | 81 | 0.0 | 0.0 | 0.00 | 0.00 | 0.00 | 55 | 1009.3 | |
| 20260905121539 | 81 | 0.0 | 0.0 | 0.00 | 0.00 | 0.00 | 55 | 1009.2 | |
| 20260905120545 | 81 | 0.0 | 0.0 | 0.00 | 0.00 | 0.00 | 55 | 1009.2 | |
| 20260905115555 | 82 | 0.0 | 0.0 | 0.00 | 0.00 | 0.00 | 54 | 1009.1 | |
| 20260905114524 | 82 | 0.0 | 0.0 | 0.00 | 0.00 | 0.00 | 54 | 1009.2 | |
| 20260905113525 | 82 | 0.0 | 0.0 | 0.00 | 0.00 | 0.00 | 54 | 1009.1 | |
| 20260905112539 | 82 | 0.0 | 0.0 | 0.00 | 0.00 | 0.00 | 54 | 1009.1 | |
| 20260905111536 | 83 | 0.0 | 0.0 | 0.00 | 0.00 | 0.00 | 54 | 1009.1 | |
| 20260905110554 | 83 | 0.0 | 0.0 | 0.00 | 0.00 | 0.00 | 54 | 1009.1 | |
| 20260905105521 | 83 | 0.0 | 0.0 | 0.00 | 0.00 | 0.00 | 54 | 1008.9 | |
| 20260905104521 | 83 | 0.0 | 0.0 | 0.00 | 0.00 | 0.00 | 54 | 1009.0 | |
| 20260905103547 | 83 | 0.0 | 0.0 | 0.00 | 0.00 | 0.00 | 54 | 1009.0 | |
| 20260905102525 | 84 | 0.0 | 0.0 | 0.00 | 0.00 | 0.00 | 54 | 1009.0 | |
| 20260905101524 | 84 | 0.0 | 0.0 | 0.00 | 0.00 | 0.00 | 54 | 1009.0 | |
| 20260905100522 | 84 | 0.0 | 0.0 | 0.00 | 0.00 | 0.00 | 54 | 1009.0 | |
| 20260905095519 | 84 | 0.0 | 0.0 | 0.00 | 0.00 | 0.00 | 53 | 1009.1 | |
| 20260905094530 | 84 | 0.0 | 0.0 | 0.00 | 0.00 | 0.00 | 53 | 1009.0 | |
| 20260905093521 | 84 | 0.0 | 0.0 | 0.00 | 0.00 | 0.00 | 53 | 1009.0 | |
| 20260905092545 | 84 | 0.0 | 0.0 | 0.00 | 0.00 | 0.00 | 52 | 1009.1 | |
| 20260905091539 | 85 | 0.0 | 0.0 | 0.00 | 0.00 | 0.00 | 51 | 1009.1 | |
| 20260905090521 | 85 | 0.0 | 0.0 | 0.00 | 0.00 | 0.00 | 51 | 1009.1 | |
| 20260905085530 | 85 | 0.0 | 0.0 | 0.00 | 0.00 | 0.00 | 51 | 1009.0 | |
| 20260905084534 | 85 | 0.0 | 0.0 | 0.00 | 0.00 | 0.00 | 51 | 1009.1 | |
| 20260905083521 | 85 | 0.0 | 0.0 | 0.00 | 0.00 | 0.00 | 52 | 1009.2 | |
| 20260905082556 | 85 | 0.0 | 0.0 | 0.00 | 0.00 | 0.00 | 51 | 1009.1 | |
| 20260905081542 | 86 | 0.0 | 0.0 | 0.00 | 0.00 | 0.00 | 50 | 1009.4 | |
| 20260905080547 | 86 | 0.0 | 0.0 | 0.00 | 0.00 | 0.00 | 50 | 1009.4 | |
| 20260905075531 | 87 | 0.0 | 0.0 | 0.00 | 0.00 | 0.00 | 49 | 1009.5 | |
| 20260905074534 | 87 | 0.0 | 0.0 | 0.00 | 0.00 | 0.00 | 49 | 1009.5 | |
| 20260905073534 | 87 | 0.0 | 0.0 | 0.00 | 0.00 | 0.00 | 49 | 1009.4 | |
| 20260905072532 | 87 | 0.0 | 0.0 | 0.00 | 0.00 | 0.00 | 48 | 1009.2 | |
| 20260905071524 | 87 | 0.0 | 0.0 | 0.00 | 0.00 | 0.00 | 48 | 1009.2 | |
| 20260905070529 | 88 | 0.0 | 0.0 | 0.00 | 0.00 | 0.00 | 48 | 1009.1 | |
| 20260905065527 | 88 | 178 | 0.0 | 0.0 | 0.00 | 0.00 | 0.00 | 47 | 1009.1 |
| 20260905064613 | 88 | 33 | 0.0 | 0.0 | 0.00 | 0.00 | 0.00 | 47 | 1009.1 |
| 20260905063524 | 88 | 0.0 | 0.0 | 0.00 | 0.00 | 0.00 | 46 | 1009.1 | |
| 20260905062539 | 88 | 0.0 | 0.0 | 0.00 | 0.00 | 0.00 | 46 | 1009.1 | |
| 20260905061546 | 88 | 164 | 0.0 | 0.0 | 0.00 | 0.00 | 0.00 | 45 | 1009.1 |
| 20260905060531 | 88 | 89 | 0.0 | 1.0 | 0.00 | 0.00 | 0.00 | 45 | 1009.0 |
| 20260905055526 | 89 | 0.0 | 0.0 | 0.00 | 0.00 | 0.00 | 45 | 1008.9 | |
| 20260905054543 | 89 | 0.0 | 0.0 | 0.00 | 0.00 | 0.00 | 45 | 1008.9 | |
| 20260905053550 | 89 | 0.0 | 0.0 | 0.00 | 0.00 | 0.00 | 45 | 1008.7 | |
| 20260905052522 | 89 | 0.0 | 0.0 | 0.00 | 0.00 | 0.00 | 44 | 1008.6 | |
| 20260905051528 | 90 | 0.0 | 0.0 | 0.00 | 0.00 | 0.00 | 43 | 1008.6 | |
| 20260905050524 | 90 | 0.0 | 0.0 | 0.00 | 0.00 | 0.00 | 43 | 1008.5 | |
| 20260905045541 | 90 | 0.0 | 0.0 | 0.00 | 0.00 | 0.00 | 43 | 1008.5 | |
| 20260905044536 | 91 | 0.0 | 0.0 | 0.00 | 0.00 | 0.00 | 42 | 1008.5 | |
| 20260905043519 | 91 | 0.0 | 0.0 | 0.00 | 0.00 | 0.00 | 42 | 1008.5 | |
| 20260905042525 | 91 | 0.0 | 0.0 | 0.00 | 0.00 | 0.00 | 42 | 1008.5 | |
| 20260905041522 | 91 | 0.0 | 0.0 | 0.00 | 0.00 | 0.00 | 42 | 1008.5 | |
| 20260905040538 | 92 | 0.0 | 0.0 | 0.00 | 0.00 | 0.00 | 41 | 1008.5 | |
| 20260905035535 | 92 | 0.0 | 0.0 | 0.00 | 0.00 | 0.00 | 41 | 1008.4 | |
| 20260905034546 | 92 | 0.0 | 0.0 | 0.00 | 0.00 | 0.00 | 40 | 1008.3 | |
| 20260905033542 | 92 | 0.0 | 0.0 | 0.00 | 0.00 | 0.00 | 39 | 1008.3 | |
| 20260905032548 | 93 | 0.0 | 0.0 | 0.00 | 0.00 | 0.00 | 38 | 1008.1 | |
| 20260905031546 | 93 | 0.0 | 0.0 | 0.00 | 0.00 | 0.00 | 36 | 1007.9 | |
| 20260905030524 | 93 | 0.0 | 0.0 | 0.00 | 0.00 | 0.00 | 36 | 1007.7 | |
| 20260905025522 | 94 | 254 | 0.0 | 0.0 | 0.00 | 0.00 | 0.00 | 36 | 1007.6 |
| 20260905024519 | 94 | 247 | 0.0 | 0.0 | 0.00 | 0.00 | 0.00 | 35 | |
| 20260905023526 | 94 | 266 | 0.0 | 1.0 | 0.00 | 0.00 | 0.00 | 35 | 1007.3 |
| 20260905022532 | 94 | 203 | 0.0 | 1.0 | 0.00 | 0.00 | 0.00 | 34 | 1007.2 |
| 20260905021537 | 94 | 0.0 | 0.0 | 0.00 | 0.00 | 0.00 | 34 | 1007.1 | |
| 20260905020519 | 94 | 0.0 | 0.0 | 0.00 | 0.00 | 0.00 | 33 | 1007.0 | |
| 20260905015534 | 95 | 0.0 | 0.0 | 0.00 | 0.00 | 0.00 | 33 | 1007.0 | |
| 20260905014543 | 95 | 269 | 0.0 | 0.0 | 0.00 | 0.00 | 0.00 | 32 | 1006.9 |
| 20260905013525 | 95 | 298 | 1.0 | 1.0 | 0.00 | 0.00 | 0.00 | 31 | 1006.9 |
| 20260905012535 | 96 | 301 | 1.0 | 1.0 | 0.00 | 0.00 | 0.00 | 31 | 1006.9 |
| 20260905011540 | 96 | 313 | 1.0 | 1.0 | 0.00 | 0.00 | 0.00 | 31 | 1006.8 |
| 20260905010531 | 97 | 306 | 1.0 | 1.0 | 0.00 | 0.00 | 0.00 | 31 | 1006.8 |
| 20260905005520 | 97 | 294 | 0.0 | 1.0 | 0.00 | 0.00 | 0.00 | 30 | 1006.8 |
| 20260905004523 | 97 | 288 | 1.0 | 1.0 | 0.00 | 0.00 | 0.00 | 30 | 1006.8 |
| 20260905003532 | 98 | 333 | 2.0 | 2.0 | 0.00 | 0.00 | 0.00 | 30 | 1006.7 |
| 20260905002558 | 98 | 295 | 2.0 | 2.0 | 0.00 | 0.03 | 0.00 | 30 | 1006.6 |
| 20260905001528 | 98 | 328 | 2.0 | 2.0 | 0.00 | 0.03 | 0.00 | 30 | 1006.5 |
| 20260905000530 | 98 | 327 | 1.0 | 1.0 | 0.00 | 0.03 | 0.00 | 31 | 1006.5 |
| 20260904235543 | 98 | 334 | 2.0 | 2.0 | 0.00 | 0.03 | 0.00 | 30 | 1006.5 |
| 20260904234550 | 98 | 285 | 1.0 | 1.0 | 0.00 | 0.03 | 0.00 | 32 | 1006.6 |
| 20260904233525 | 99 | 266 | 1.0 | 1.0 | 0.00 | 0.03 | 0.00 | 32 | 1006.7 |
| 20260904232524 | 99 | 329 | 1.0 | 1.0 | 0.00 | 0.03 | 0.00 | 32 | 1006.7 |
| 20260904231600 | 99 | 327 | 2.0 | 2.0 | 0.00 | 0.03 | 0.00 | 32 | 1006.8 |
| 20260904230520 | 99 | 306 | 2.0 | 2.0 | 0.00 | 0.03 | 0.00 | 32 | 1006.9 |
| 20260904225525 | 99 | 326 | 2.0 | 2.0 | 0.00 | 0.03 | 0.00 | 32 | 1006.9 |
| 20260904224532 | 99 | 321 | 2.0 | 3.0 | 0.00 | 0.03 | 0.00 | 31 | 1007.0 |
| 20260904223521 | 99 | 322 | 1.0 | 2.0 | 0.00 | 0.03 | 0.00 | 32 | 1007.0 |
| 20260904222556 | 99 | 1 | 2.0 | 3.0 | 0.00 | 0.03 | 0.00 | 31 | 1007.1 |
| 20260904221551 | 99 | 7 | 2.0 | 2.0 | 0.00 | 0.03 | 0.00 | 30 | 1007.1 |
| 20260904220523 | 99 | 32 | 2.0 | 2.0 | 0.00 | 0.03 | 0.00 | 30 | 1007.3 |
| 20260904215529 | 100 | 358 | 2.0 | 2.0 | 0.00 | 0.03 | 0.00 | 31 | 1007.4 |
| 20260904214535 | 99 | 304 | 2.0 | 2.0 | 0.00 | 0.03 | 0.00 | 32 | 1007.5 |
| 20260904213533 | 99 | 359 | 1.0 | 2.0 | 0.00 | 0.03 | 0.00 | 31 | 1007.7 |
| 20260904212602 | 99 | 351 | 1.0 | 1.0 | 0.00 | 0.03 | 0.00 | 33 | 1007.8 |
| 20260904211520 | 99 | 279 | 1.0 | 1.0 | 0.00 | 0.03 | 0.00 | 34 | 1008.0 |
| 20260904210527 | 99 | 275 | 2.0 | 2.0 | 0.00 | 0.03 | 0.00 | 35 | 1008.1 |
| 20260904205532 | 99 | 250 | 1.0 | 1.0 | 0.00 | 0.03 | 0.00 | 36 | 1008.1 |
| 20260904204550 | 98 | 261 | 1.0 | 2.0 | 0.00 | 0.03 | 0.00 | 35 | 1008.2 |
| 20260904203531 | 99 | 233 | 1.0 | 1.0 | 0.00 | 0.03 | 0.00 | 36 | 1008.4 |
| 20260904202521 | 98 | 264 | 1.0 | 1.0 | 0.00 | 0.03 | 0.00 | 36 | 1008.5 |
| 20260904201523 | 98 | 239 | 1.0 | 1.0 | 0.00 | 0.03 | 0.00 | 37 | 1008.7 |
| 20260904200526 | 97 | 354 | 1.0 | 2.0 | 0.00 | 0.03 | 0.00 | 36 | 1008.8 |
| 20260904195524 | 98 | 326 | 1.0 | 2.0 | 0.00 | 0.03 | 0.00 | 36 | 1008.9 |
| 20260904194521 | 98 | 29 | 1.0 | 2.0 | 0.00 | 0.03 | 0.00 | 36 | 1009.0 |
| 20260904193519 | 97 | 349 | 1.0 | 1.0 | 0.00 | 0.03 | 0.00 | 36 | 1009.2 |
| 20260904192520 | 97 | 284 | 1.0 | 1.0 | 0.00 | 0.03 | 0.00 | 37 | 1009.4 |
| 20260904191526 | 97 | 345 | 1.0 | 1.0 | 0.00 | 0.03 | 0.00 | 39 | 1009.6 |
| 20260904190524 | 96 | 233 | 0.0 | 1.0 | 0.00 | 0.03 | 0.00 | 40 | 1009.7 |
| 20260904185538 | 95 | 320 | 1.0 | 1.0 | 0.00 | 0.03 | 0.00 | 41 | 1009.7 |
| 20260904184544 | 95 | 252 | 1.0 | 1.0 | 0.00 | 0.03 | 0.00 | 42 | 1009.8 |
| 20260904183529 | 94 | 205 | 1.0 | 1.0 | 0.00 | 0.03 | 0.00 | 44 | 1009.9 |
| 20260904182523 | 94 | 185 | 1.0 | 1.0 | 0.00 | 0.03 | 0.00 | 46 | 1010.1 |
| 20260904181521 | 94 | 266 | 1.0 | 1.0 | 0.00 | 0.03 | 0.00 | 46 | 1010.2 |
| 20260904180544 | 93 | 156 | 1.0 | 1.0 | 0.00 | 0.03 | 0.00 | 48 | 1010.2 |
| 20260904175542 | 93 | 192 | 1.0 | 1.0 | 0.00 | 0.03 | 0.00 | 48 | 1010.4 |
| 20260904174528 | 92 | 184 | 1.0 | 1.0 | 0.00 | 0.03 | 0.00 | 49 | 1010.6 |
| 20260904173521 | 92 | 351 | 1.0 | 1.0 | 0.00 | 0.03 | 0.00 | 50 | 1010.7 |
| 20260904172529 | 91 | 211 | 2.0 | 2.0 | 0.00 | 0.03 | 0.00 | 51 | 1010.8 |
| 20260904171535 | 91 | 133 | 2.0 | 2.0 | 0.00 | 0.03 | 0.00 | 50 | 1010.8 |
| 20260904170532 | 90 | 222 | 2.0 | 2.0 | 0.00 | 0.03 | 0.00 | 51 | 1010.9 |
| 20260904165522 | 90 | 190 | 2.0 | 2.0 | 0.00 | 0.03 | 0.00 | 52 | 1010.8 |
| 20260904164528 | 89 | 178 | 2.0 | 2.0 | 0.00 | 0.03 | 0.00 | 52 | 1010.8 |
| 20260904163544 | 89 | 167 | 2.0 | 2.0 | 0.00 | 0.03 | 0.00 | 52 | 1010.7 |
| 20260904162525 | 88 | 223 | 2.0 | 2.0 | 0.00 | 0.03 | 0.00 | 53 | 1010.6 |
| 20260904161522 | 88 | 195 | 2.0 | 2.0 | 0.00 | 0.03 | 0.00 | 53 | 1010.6 |
| 20260904160541 | 87 | 115 | 2.0 | 2.0 | 0.00 | 0.03 | 0.00 | 53 | 1010.6 |
| 20260904155534 | 87 | 236 | 2.0 | 2.0 | 0.00 | 0.03 | 0.00 | 53 | 1010.6 |
| 20260904154520 | 87 | 149 | 2.0 | 2.0 | 0.00 | 0.03 | 0.00 | 54 | 1010.5 |
| 20260904153526 | 86 | 177 | 2.0 | 2.0 | 0.00 | 0.03 | 0.00 | 54 | 1010.5 |